Regional Weather Roundup
Issued by NWS Little Rock, AR

Home | Current Version | Previous Version | Graphics & Text | Print | Product List | Glossary On
Versions: 1 2 3 4 5 6 7 8 9 10 11 12 13 14 15 16 17 18 19 20 21 22 23 24 25 26 27 28 29 30 31 32 33 34 35 36 37 38 39 40 41 42 43 44 45 46 47 48 49 50
000
ASUS44 KLZK 200705
RWRLZK

WEATHER ROUNDUP FOR ARKANSAS
NATIONAL WEATHER SERVICE LITTLE ROCK AR
200 AM CDT MON OCT 20 2014

NOTE: "FAIR" INDICATES FEW OR NO CLOUDS BELOW 12,000 FEET WITH NO
SIGNIFICANT WEATHER AND/OR OBSTRUCTIONS TO VISIBILITY.

ARZ001-003-010-029-200800-
NORTHWEST ARKANSAS

CITY           SKY/WX    TMP DP  RH WIND       PRES   REMARKS
FAYETTEVILLE   MOCLDY    49  49 100 CALM      30.08F
FORT SMITH     FAIR      56  52  86 NE3       30.07F
HARRISON       MOCLDY    53  49  86 S5        30.07F
BENTONVILLE    MOCLDY    54  48  82 S5        30.07F
ROGERS         FAIR      53  50  89 S7        30.07F
SILOAM SPGS    MOCLDY    54  46  76 S6        30.08F
HIGHFILL       FAIR      52  50  93 S3        30.06F
$$

ARZ004-005-016-200800-
NORTH CENTRAL ARKANSAS

CITY           SKY/WX    TMP DP  RH WIND       PRES   REMARKS
BATESVILLE     FAIR      48  45  87 CALM      30.07F
FLIPPIN        FAIR      54  45  71 CALM      30.07F
MTN HOME       MOCLDY    52  48  86 CALM      30.06F
$$

ARZ040-041-200800-
WEST CENTRAL ARKANSAS

CITY           SKY/WX    TMP DP  RH WIND       PRES   REMARKS
MENA           FAIR      50  50 100 CALM      30.09F
MOUNT IDA      FAIR      47  46  97 CALM      30.07F
$$

ARZ009-017-025-026-028-200800-
NORTHEAST ARKANSAS

CITY           SKY/WX    TMP DP  RH WIND       PRES   REMARKS
CORNING        FAIR      50  50 100 SW5       30.07F
JONESBORO      FAIR      50  47  89 CALM      30.07F
NEWPORT        FAIR      49  47  93 S5        30.08F
WALNUT RIDGE   FAIR      52  37  58 S5        30.07F
BLYTHEVILLE    FAIR      52  50  93 SW5       30.08F
$$

ARZ022-023-033-042-044-200800-
CENTRAL ARKANSAS

CITY           SKY/WX    TMP DP  RH WIND       PRES   REMARKS
LITTLE ROCK    FAIR      51  47  86 CALM      30.08F
N LITTLE ROCK    N/A     53  49  85 SW5       30.08F
JACKSONVILLE   FAIR      46  45  94 CALM      30.08F
SEARCY         FAIR      46  45  96 CALM      30.09F
HOT SPRINGS    CLOUDY    49  47  93 CALM      30.09F
RUSSELLVILLE   FAIR      50  48  93 CALM      30.08F
$$

ARZ036-200800-
EAST ARKANSAS

CITY           SKY/WX    TMP DP  RH WIND       PRES   REMARKS
WEST MEMPHIS   FAIR      46  46 100 CALM      30.08F
$$

ARZ050-053-066-070-073-200800-
SOUTHWEST ARKANSAS

CITY           SKY/WX    TMP DP  RH WIND       PRES   REMARKS
ARKADELPHIA    FAIR      49  49 100 CALM      30.09F
CAMDEN         FAIR      46  45  93 CALM      30.09F FOG
TEXARKANA      FAIR      49  49 100 CALM      30.08F
EL DORADO      FAIR      48  47  96 CALM      30.09F
DE QUEEN       FOG       48  48 100 CALM      30.07F VSB 1/2
$$

ARZ056-057-069-200800-
SOUTHEAST ARKANSAS

CITY           SKY/WX    TMP DP  RH WIND       PRES   REMARKS
PINE BLUFF     FAIR      47  44  90 CALM      30.09F
STUTTGART      FAIR      52  46  82 CALM      30.09F
MONTICELLO     FAIR      48  45  89 CALM      30.08F

$$





USA.gov is the U.S. government's official web portal to all federal, state and local government web resources and services.